CST,Max TemperatureF,Mean TemperatureF,Min TemperatureF,Max Dew PointF,MeanDew PointF,Min DewpointF,Max Humidity, Mean Humidity, Min Humidity, Max Sea Level PressureIn, Mean Sea Level PressureIn, Min Sea Level PressureIn, Max VisibilityMiles, Mean VisibilityMiles, Min VisibilityMiles, Max Wind SpeedMPH, Mean Wind SpeedMPH, Max Gust SpeedMPH,PrecipitationIn, CloudCover, Events, WindDirDegrees
2012-11-1,79,69,60,60,56,50,90,72,43,30.10,30.04,30.01,10,8,0,8,4,,0.00,0,Fog,235
2012-11-2,82,72,61,66,63,58,94,81,45,30.12,30.07,30.03,10,5,0,9,3,,0.01,4,Fog,231
2012-11-3,82,68,55,65,58,52,93,75,39,30.16,30.10,30.06,10,6,0,9,2,,0.00,1,Fog,220
2012-11-4,81,68,57,66,59,55,94,84,52,30.12,30.09,30.04,10,6,0,15,1,25,0.00,4,Fog-Rain,332
2012-11-5,75,65,55,63,58,52,94,78,57,30.08,30.01,29.94,10,8,0,12,4,21,0.00,3,Fog-Rain-Thunderstorm,134
2012-11-6,63,56,46,59,50,43,88,75,56,30.08,30.03,29.96,10,8,3,9,5,18,0.00,4,Fog,352
2012-11-7,68,56,44,50,41,35,90,65,32,30.17,30.09,30.03,10,7,1,10,2,21,0.00,0,,356
2012-11-8,63,53,43,43,38,32,86,61,31,30.28,30.22,30.17,10,10,10,10,5,,0.00,0,,52
2012-11-9,73,58,42,52,47,38,90,71,44,30.27,30.22,30.19,10,9,6,10,3,17,0.00,1,Fog,91
2012-11-10,75,64,53,57,54,49,86,66,46,30.25,30.20,30.17,10,10,6,16,7,22,0.00,3,,109
2012-11-11,80,72,64,62,59,56,78,65,50,30.17,30.13,30.10,10,10,10,21,9,28,0.00,4,,132
2012-11-12,,,,,,,,,,,,,,,,,,,,,,
2012-11-13,57,50,42,33,30,26,66,43,32,30.42,30.34,30.28,10,10,10,23,11,30,0.00,6,,27
2012-11-14,62,52,43,39,34,29,80,53,29,30.34,30.28,30.24,10,10,10,10,5,16,0.00,1,,4
2012-11-15,64,53,42,45,42,37,86,67,39,30.30,30.25,30.20,10,10,6,8,3,,0.00,2,Fog,29
2012-11-16,64,54,44,47,43,40,86,68,42,30.31,30.27,30.23,10,8,5,10,5,,0.00,1,Fog,24
2012-11-17,64,52,41,45,41,37,89,65,40,30.36,30.31,30.27,10,10,6,14,4,,0.00,0,,41
2012-11-18,66,54,41,45,41,36,87,64,32,30.32,30.29,30.26,10,10,6,14,4,,0.00,0,Fog,52
2012-11-19,71,56,42,51,44,39,87,73,39,30.30,30.24,30.19,10,8,1,7,2,,0.00,2,Fog,43
2012-11-20,73,58,44,52,44,39,89,67,30,30.22,30.18,30.13,10,9,2,8,1,,0.00,2,,4
2012-11-21,75,60,44,52,46,41,89,70,37,30.24,30.19,30.15,10,8,1,6,1,,0.00,1,,324
2012-11-22,75,59,43,54,45,39,87,74,37,30.25,30.21,30.18,10,6,1,10,1,,0.00,0,,143
2012-11-23,73,60,46,56,49,42,89,77,45,30.29,30.23,30.18,10,6,0,6,1,,0.00,5,Fog,216
2012-11-24,61,50,37,46,36,31,86,57,33,30.32,30.25,30.20,10,10,10,13,6,,0.00,2,,16
2012-11-25,66,50,35,45,39,31,89,72,42,30.23,30.17,30.12,10,9,2,7,1,,0.00,0,Fog,111
2012-11-26,68,57,46,63,57,42,88,85,81,30.15,30.12,30.09,10,8,2,10,3,,0.00,6,Rain,164
2012-11-27,66,60,54,63,57,48,88,83,73,30.30,30.18,30.08,10,7,2,13,5,21,0.00,7,Rain-Thunderstorm,7
2012-11-28,61,52,42,48,43,37,90,77,44,30.43,30.36,30.30,10,7,1,9,6,,0.00,4,,15
2012-11-29,66,52,39,52,45,35,93,78,58,30.35,30.30,30.25,10,8,4,10,3,,0.00,2,Fog,61
2012-11-30,72,59,46,56,49,42,93,80,47,30.30,30.24,30.20,10,6,0,7,2,,0.00,1,Fog,69